Weather in Vozhovo

Russia / Oryol Oblast     52°40′39″N   35°48′07″E
temp.,
°C
wind,
m/s
gust,
m/s
humid.,
%
clouds,
%
prec.,
mm/h
press.,
hPa
HPBL,
m
6 may, thu
thu600:00+9s51483100 0.0 1010319
03:00+11s61478100 0.1 1009438
06:00+10ssw71772100 0.0 1008682
09:00+12s71574100 0.0 10081540
12:00+12s10176286 0.3 10071292
15:00+10ssw91585100 1.1 1008862
18:00+9wsw51092100 2.6 1009650
21:00+7sw3594100 2.7 1011102
7 may, fri
fri700:00+6wsw4993100 0.0 1012205
03:00+5w348945 0.0 101354
06:00+4wsw34875 0.0 101483
09:00+10sw46655 0.0 1015539
12:00+13ssw56465 0.0 10151734
15:00+15ssw684692 0.0 10142151
18:00+13s5962100 0.0 1013397
21:00+9sse51272100 0.0 1012259
8 may, sat
sat800:00+10sse71468100 0.0 1010404
03:00+10s81580100 0.1 1009672
06:00+9s91693100 1.0 1006787
09:00+10s61396100 2.7 1005751
12:00+10w61193100 1.8 1006653
15:00+10w81181100 2.6 1007965
18:00+8w81372100 0.0 10091268
21:00+5w61475100 0.0 1012951
9 may, sun
sun900:00+4w61283100 0.0 1013599
03:00+3w51287100 0.0 1015464
06:00+2w3893100 0.0 1018286
09:00+7nw577390 0.0 1019819
12:00+10nnw675587 0.1 10201897
15:00+11n785089 0.1 10202110
18:00+11nne476088 0.1 1022957
21:00+6n37722 0.1 1025104
10 may, mon
mon1000:00+4n49775 0.0 1026152
03:00+3n367716 0.0 102897
06:00+3n39775 0.0 1029192
09:00+9nne586010 0.0 1029615
12:00+12nne7950100 0.0 10281223
15:00+14ne685197 0.0 10271449
18:00+13ne58620 0.0 1027902
21:00+8nne49791 0.0 1028143